Volver al catálogo

STARLINK-38237

ActivoComunicacionesSSO
NORAD 100373·PAYLOAD·🇺🇸 United States

Lanzado Aug 19, 2026 desde Vandenberg Space Force Base

Loading…

Próximos Pases (próximas 24 horas)

TLE

ActualizadoSource: Space-Track

Época: Sep 14, 2026, 13:54 UTC

1 A0373U 26190C   26257.57937220  .00090783  00000-0  60246-3 0  9996
2 A0373  97.2838 111.6445 0001360  82.7588 277.3832 15.75213297  5449

Sigue STARLINK-38237 en tiempo real con AllMySat

Download on the App Store